DW3263 Weather Reports


Display with metric or nautical units.
time (UTC)temp
F
wind
direction
speed
MPH
gust
MPH
rain 1hr
in
rain 24hr
in
rain mn
in
humidity
%
barometer
mb
20260507122519 52 293 3.0 9.0 0.01 0.08 0.02 55 1011.4
20260507121519 52 293 1.0 3.0 0.00 0.07 0.01 55 1011.3
20260507120519 51 293 2.0 6.0 0.00 0.07 0.01 57 1011.3
20260507115519 51 270 3.0 7.0 0.00 0.07 0.01 56 1011.3
20260507114519 51 248 2.0 4.0 0.00 0.07 0.01 57 1011.3
20260507113519 50 248 3.0 7.0 0.00 0.07 0.01 57 1011.0
20260507112519 50 248 2.0 6.0 0.00 0.07 0.01 57 1010.9
20260507111519 50 248 1.0 3.0 0.00 0.07 0.01 59 1010.9
20260507110519 50 248 1.0 4.0 0.00 0.07 0.01 60 1010.7
20260507105519 49 248 1.0 4.0 0.00 0.07 0.01 60 1010.7
20260507104520 49 248 2.0 4.0 0.00 0.07 0.01 58 1010.5
20260507103519 49 248 2.0 5.0 0.00 0.07 0.01 60 1010.4
20260507102519 50 248 2.0 4.0 0.00 0.07 0.01 59 1010.4
20260507101520 49 315 2.0 4.0 0.00 0.07 0.01 59 1010.2
20260507100729 50 315 2.0 4.0 0.00 0.07 0.01 61 1010.1
20260507095519 50 315 2.0 4.0 0.00 0.07 0.01 60 1010.1
20260507094519 50 315 2.0 5.0 0.00 0.07 0.01 59 1010.0
20260507093519 50 315 1.0 3.0 0.00 0.07 0.01 62 1009.9
20260507092519 50 315 3.0 5.0 0.00 0.07 0.01 59 1009.8
20260507091519 50 315 4.0 7.0 0.00 0.07 0.01 60 1009.5
20260507090520 50 315 2.0 5.0 0.00 0.07 0.01 60 1009.5
20260507085519 50 315 2.0 4.0 0.00 0.07 0.01 60 1009.4
20260507084732 50 315 2.0 4.0 0.00 0.07 0.01 60 1009.5
20260507083733 51 315 2.0 5.0 0.00 0.07 0.01 59 1009.6
20260507082729 51 315 3.0 7.0 0.00 0.07 0.01 60 1009.5
20260507081519 51 315 2.0 6.0 0.00 0.07 0.01 59 1009.7
20260507080520 51 315 2.0 5.0 0.00 0.07 0.01 59 1009.6
20260507075520 51 315 1.0 5.0 0.00 0.07 0.01 59 1009.6
20260507074520 51 315 1.0 4.0 0.00 0.07 0.01 58 1009.5
20260507073728 52 315 4.0 11.0 0.01 0.07 0.01 57 1009.7
20260507072520 52 315 2.0 6.0 0.01 0.07 0.01 58 1009.7
20260507071519 52 315 2.0 6.0 0.01 0.07 0.01 58 1009.6
20260507070519 52 315 3.0 6.0 0.01 0.07 0.01 59 1009.8
20260507065519 52 315 2.0 5.0 0.01 0.07 0.01 60 1009.8
20260507064519 52 315 3.0 7.0 0.01 0.07 0.01 61 1009.7
20260507063520 52 315 4.0 8.0 0.00 0.06 0.00 62 1009.5
20260507062519 52 315 3.0 6.0 0.00 0.06 0.00 65 1009.5
20260507061731 52 315 4.0 7.0 0.00 0.06 0.00 59 1009.6
20260507060520 52 315 3.0 6.0 0.00 0.06 0.00 46 1009.6
20260507055519 52 315 4.0 9.0 0.00 0.06 0.00 43 1009.6
20260507054519 53 293 4.0 9.0 0.00 0.06 0.00 45 1009.6
20260507053520 53 315 5.0 9.0 0.00 0.06 0.00 44 1009.6
20260507052519 53 315 2.0 5.0 0.00 0.06 0.00 38 1009.6
20260507051520 54 315 3.0 8.0 0.00 0.06 0.00 45 1009.4
20260507050520 54 315 3.0 7.0 0.00 0.06 0.00 55 1009.6
20260507045520 55 338 4.0 11.0 0.00 0.06 0.00 59 1009.5
20260507044519 55 315 5.0 10.0 0.00 0.06 0.00 59 1009.3
20260507043730 55 315 4.0 7.0 0.00 0.06 0.00 57 1009.6
20260507042731 55 315 3.0 9.0 0.00 0.06 0.00 52 1009.7
20260507041520 55 315 3.0 7.0 0.00 0.06 0.00 46 1009.5
20260507040520 55 315 3.0 6.0 0.00 0.06 0.00 43 1009.6
20260507035729 55 315 4.0 7.0 0.00 0.06 0.06 42 1009.6
20260507034730 55 315 1.0 3.0 0.00 0.06 0.06 38 1009.6
20260507033731 55 315 2.0 6.0 0.00 0.06 0.06 39 1009.4
20260507032519 56 315 2.0 6.0 0.00 0.06 0.06 42 1009.3
20260507031519 56 315 2.0 5.0 0.00 0.06 0.06 44 1009.1
20260507030519 56 315 2.0 7.0 0.00 0.06 0.06 45 1008.9
20260507025943 56 315 3.0 6.0 0.00 0.06 0.06 46 1009.1
20260507024731 56 315 5.0 9.0 0.00 0.06 0.06 46 1008.8
20260507023519 56 315 3.0 9.0 0.00 0.06 0.06 36 1009.3
20260507022519 57 315 1.0 5.0 0.00 0.06 0.06 27 1009.3
20260507021519 57 315 1.0 4.0 0.00 0.06 0.06 29 1009.1
20260507020519 57 315 3.0 6.0 0.00 0.06 0.06 32 1008.8
20260507015519 57 315 2.0 6.0 0.00 0.06 0.06 29 1008.9
20260507014519 58 315 3.0 6.0 0.00 0.06 0.06 30 1009.2
20260507013519 58 315 4.0 11.0 0.01 0.06 0.06 34 1009.1
20260507012519 58 315 4.0 8.0 0.01 0.06 0.06 32 1009.2
20260507011519 58 315 5.0 12.0 0.01 0.06 0.06 32 1009.2
20260507010519 59 293 4.0 8.0 0.01 0.06 0.06 32 1009.0
20260507005519 59 293 1.0 3.0 0.01 0.06 0.06 31 1008.9
20260507004519 59 293 3.0 6.0 0.01 0.06 0.06 33 1008.7
20260507003733 60 293 3.0 6.0 0.00 0.05 0.05 33 1008.6
20260507002519 60 293 4.0 8.0 0.00 0.05 0.05 33 1008.6
20260507001519 60 293 4.0 9.0 0.00 0.05 0.05 31 1008.0
20260507000519 60 293 5.0 8.0 0.00 0.05 0.05 32 1007.9
20260506235519 61 315 4.0 9.0 0.00 0.05 0.05 32 1007.6
20260506234519 61 293 3.0 8.0 0.00 0.05 0.05 34 1007.3
20260506233519 62 293 4.0 7.0 0.00 0.05 0.05 35 1007.3
20260506232519 62 315 4.0 8.0 0.00 0.05 0.05 34 1007.0
20260506231519 62 315 4.0 10.0 0.00 0.05 0.05 34 1006.9
20260506230519 62 315 5.0 9.0 0.00 0.05 0.05 32 1006.9
20260506225519 63 293 3.0 8.0 0.00 0.05 0.05 8 1006.8
20260506224520 64 293 2.0 5.0 0.00 0.05 0.05 12 1006.9
20260506223519 64 293 3.0 5.0 0.00 0.05 0.05 9 1006.9
20260506222519 64 293 3.0 7.0 0.00 0.05 0.05 13 1006.5
20260506221519 65 315 4.0 8.0 0.00 0.05 0.05 12 1006.4
20260506220519 65 293 6.0 12.0 0.01 0.05 0.05 15 1006.3
20260506215519 66 293 6.0 12.0 0.01 0.05 0.05 15 1006.0
20260506214519 67 315 4.0 8.0 0.01 0.05 0.05 100 1005.8
20260506213519 66 315 5.0 16.0 0.01 0.05 0.05 100 1005.7
20260506212519 67 315 2.0 5.0 0.01 0.05 0.05 100 1005.5
20260506211731 67 225 1.0 3.0 0.01 0.05 0.05 100 1005.3
20260506210519 67 225 2.0 5.0 0.00 0.04 0.04 100 1005.0
20260506205519 67 225 2.0 5.0 0.00 0.04 0.04 100 1005.1
20260506204519 67 225 4.0 8.0 0.00 0.04 0.04 100 1005.2
20260506203519 67 203 4.0 9.0 0.00 0.04 0.04 100 1005.1
20260506202519 67 270 3.0 8.0 0.00 0.04 0.04 100 1004.9
20260506201519 67 203 4.0 7.0 0.00 0.04 0.04 100 1005.0
20260506200519 67 270 5.0 13.0 0.00 0.04 0.04 100 1005.0
20260506195519 67 225 3.0 7.0 0.00 0.04 0.04 100 1004.9
20260506194520 67 270 4.0 9.0 0.00 0.04 0.04 100 1005.0
20260506193731 66 248 4.0 9.0 0.00 0.04 0.04 100 1005.0
20260506192519 65 270 3.0 8.0 0.00 0.04 0.04 100 1005.2
20260506191519 65 203 2.0 7.0 0.00 0.04 0.04 100 1005.3
20260506190520 65 225 2.0 5.0 0.00 0.04 0.04 100 1005.3
20260506185519 65 225 3.0 6.0 0.00 0.04 0.04 100 1005.3
20260506184520 64 225 4.0 9.0 0.00 0.04 0.04 100 1005.3
20260506183520 64 180 3.0 6.0 0.01 0.04 0.04 100 1005.4
20260506182519 63 158 4.0 7.0 0.01 0.04 0.04 100 1005.5
20260506181519 64 203 3.0 7.0 0.01 0.04 0.04 100 1005.5
20260506180520 63 203 5.0 11.0 0.01 0.04 0.04 100 1005.4
20260506175519 63 225 4.0 9.0 0.01 0.04 0.04 100 1005.5
20260506174519 62 248 4.0 8.0 0.01 0.04 0.04 100 1005.5
20260506173520 61 203 2.0 5.0 0.00 0.03 0.03 100 1005.4
20260506172519 61 203 1.0 5.0 0.00 0.03 0.03 100 1005.5
20260506171519 61 203 2.0 5.0 0.00 0.03 0.03 100 1005.6
20260506170519 61 203 2.0 5.0 0.00 0.03 0.03 100 1005.6
20260506165520 61 203 2.0 5.0 0.00 0.03 0.03 100 1005.6
20260506164520 61 203 2.0 5.0 0.00 0.03 0.03 100 1005.6
20260506163519 61 203 2.0 5.0 0.01 0.03 0.03 100 1005.6
20260506162520 60 203 4.0 7.0 0.01 0.03 0.03 100 1005.6
20260506161520 60 203 4.0 7.0 0.01 0.03 0.03 100 1005.7
20260506160520 60 203 4.0 7.0 0.01 0.03 0.03 100 1005.7
20260506155520 60 225 4.0 7.0 0.01 0.03 0.03 100 1005.6
20260506154946 60 203 2.0 7.0 0.01 0.03 0.03 100 1005.6
20260506153520 60 203 4.0 7.0 0.00 0.02 0.02 100 1005.5
20260506152519 60 203 4.0 8.0 0.00 0.02 0.02 100 1005.5
20260506151532 60 203 5.0 10.0 0.01 0.02 0.02 100 1005.4
20260506150519 60 180 5.0 11.0 0.01 0.02 0.02 100 1005.2
20260506145520 60 203 4.0 7.0 0.01 0.02 0.02 100 1005.4
20260506144519 60 180 4.0 7.0 0.01 0.02 0.02 100 1005.6
20260506143519 60 203 5.0 11.0 0.01 0.02 0.02 100 1005.7
20260506142520 60 135 2.0 5.0 0.01 0.02 0.02 100 1005.9
20260506141520 60 180 4.0 12.0 0.00 0.01 0.01 100 1006.1
20260506140520 61 180 5.0 14.0 0.00 0.01 0.01 100 1005.9
20260506135520 61 203 4.0 10.0 0.01 0.01 0.01 100 1005.8
20260506134729 61 180 4.0 8.0 0.01 0.01 0.01 100 1005.6
20260506133519 61 158 3.0 6.0 0.01 0.01 0.01 100 1005.6
20260506132520 61 203 4.0 7.0 0.01 0.01 0.01 100 1005.7
20260506131520 61 203 2.0 6.0 0.01 0.01 0.01 100 1005.7
20260506130520 61 203 2.0 5.0 0.01 0.01 0.01 100 1006.0
20260506125519 61 0.0 2.0 0.00 0.00 0.00 100 1006.1
20260506124520 61 0.0 1.0 0.00 0.00 0.00 100 1005.9
20260506123520 61 0.0 2.0 0.00 0.00 0.00 100 1006.1